Showing default

GEESAT 2-02, 58906

Orbit data source: Space-Track

GEESAT 2-02, 58906 is a payload satellite owned by GeeSpace (CN) in LEO that was launched on Fri, 02 Feb 2024 UTC via a CHANG ZHENG 2C launch vehicle from the Xichang Space Center, China (XSC). Payload-class satellites include a variety of spacecraft equipped with specific instruments for various scientific and technological missions. These include communications satellites like Starlink; space stations such as the ISS; scientific satellites like the Hubble; Earth observation satellites from companies like Planet Labs, Umbra, and HawkEye 360; GPS; miniature CubeSats for education and research; and military/defense satellites.

Loading next visibility...
Identifier
58906, 2024-023B
Orbit
LEO
Country
Flag of CNCN / PRC
Related business
Manufacturer
GWCG
Mission
Operational Commercial Navigation
Bus & Motor
GPS100, Unknown motor
Mass
130 kg wet, 130 kg dry
Launch date (UTC)
2024-02-02 (2 years ago)
Launch vehicle
CHANG ZHENG 2C
Launch site
Xichang Space Center, China (XSC)
Object type
Payload
Rocket body
Debris
Shape & HBR
Box + 2 Pan, 1.0 m
Radar Cross Section
0.833 m², Medium (>0.1 m² and < 1m²)

Expand to show TLE details & history
Last TLE update: 7 hours ago

TLE from 7 hours ago
0 GEESAT 2-02
1 58906U 24023B   25304.28480139  .00004164  00000-0  45180-3 0  9994
2 58906  49.9992 334.5440 0010722 311.7307  48.2717 14.89942820 94930
Epoch: 2025-10-31T06:50Z
TLE epoch observation values (Epoch: 2025-10-31T06:50:06.840Z)
Latitude
0.00005°
Longitude
-167.8159°
Altitude
593.686 km
Speed
7.567 km/s
True Right ascension
22h 18m 10s
True Declination
0° 00' 00"
Sunlit
Object was in full shadow at epoch
Visualization orbit readout
Latitude
Unknown
Longitude
Unknown
Altitude
Unknown
Speed
Unknown
Apparent Right ascension
Unknown
Apparent Declination
Unknown
Sunlit
N/A
Visualization observer readout
Local Sidereal Time
09:45:40
Azimuth
Unknown
Elevation
Unknown
Doppler factor
Unknown
Orbital elements
Apogee altitude
606.355 km
Perigee altitude
591.394 km
Semi-major axis
6,977.012 km
Eccentricity
0.00107
Inclination
49.9992°
RAAN
334.544°
Arg. of periapsis
311.7307°
True anomaly
48.36348°
Mean anomaly
48.2717°
Eccentric anomaly
48.31758°
Mean motion
3.72425 °/min
Orbital period
96.66 mins
BSTAR
0.0004518
Loading maneuver chart data...
Computing Atmospheric mass density...
Loading historical data...
Loading historical data...
Loading historical data...
Loading historical data...
Loading historical data...
Loading historical data...
Loading historical data...

Documentation

Showing up to 5 results
|